Home > Weather > Plettenberg > Past weeks

Flag for Germany Weather for the Past 2 Weeks in Plettenberg, North Rhine-Westphalia, Germany

Now
37 °F

Sunny.


Feels Like: 29 °F
Forecast: 32 / 40 °F
Wind: 13 mph from South

Location: Dortmund / Wickede

Current Time: Feb 12, 2016 at 11:04:15 AM

Latest Report: Feb 12, 2016 at 10:20 AM


Visibility: 10 mi

Pressure: 29.56 "Hg

Humidity: 75%

Dew point: 30 °F

Location of PlettenbergLocation

Historic Weather in Plettenberg — Graph

°F

Plettenberg Temperature Yesterday

Maximum temperature yesterday: 43 °F (at 1:50 PM)
Minimum temperature yesterday: 32 °F (at 10:20 PM)
Average temperature yesterday: 38 °F

High & Low Weather Summary for the Past Weeks

 TemperatureHumidityPressure
High52 °F (Feb 1, 5:20 AM)94% (Feb 1, 7:20 AM)30.30 "Hg (Feb 1, 7:20 AM)
Low32 °F (Feb 11, 10:20 PM)53% (Jan 28, 2:20 PM)28.82 "Hg (Feb 9, 3:50 PM)
Average43 °F76%29.79 "Hg
* Reported Jan 28 9:20 AM — Feb 12 9:50 AM, Plettenberg, Weather by CustomWeather, © 2016

Note: Actual official high and low records may vary slightly from our data, if they occured in-between our weather recording intervals... More about our weather records

Advertising

Plettenberg Weather History for the Previous 24 Hours

 ConditionsComfort  
Time TempWeatherWind HumidityBarometerVisibility
9:50 AM
Fri, Feb 12
37 °FScattered clouds.12 mph75%29.59 "HgN/A
9:20 AM36 °FPartly sunny.8 mph81%29.59 "HgN/A
8:50 AM36 °FBroken clouds.8 mph87%29.59 "HgN/A
8:20 AM36 °FBroken clouds.7 mph87%29.59 "HgN/A
7:50 AM36 °FPartly sunny.8 mph87%29.59 "HgN/A
7:20 AM36 °FPassing clouds.7 mph81%29.59 "HgN/A
6:50 AM36 °FPassing clouds.6 mph81%29.59 "HgN/A
6:20 AM36 °FPassing clouds.8 mph87%29.62 "HgN/A
5:50 AM36 °FPassing clouds.6 mph81%29.62 "HgN/A
10:50 PM
Thu, Feb 11
34 °FPassing clouds.9 mph87%29.65 "HgN/A
10:20 PM32 °FClear.8 mph87%29.65 "Hg10 mi
9:50 PM36 °FClear.8 mph75%29.65 "Hg10 mi
9:20 PM36 °FClear.10 mph75%29.65 "Hg10 mi
8:50 PM36 °FClear.9 mph81%29.65 "Hg10 mi
8:20 PM36 °FClear.9 mph75%29.65 "Hg10 mi
7:50 PM36 °FClear.8 mph81%29.65 "Hg10 mi
7:20 PM37 °FClear.9 mph75%29.65 "Hg10 mi
6:50 PM37 °FClear.10 mph75%29.65 "Hg10 mi
6:20 PM37 °FClear.9 mph75%29.65 "Hg10 mi
5:50 PM39 °FClear.8 mph70%29.65 "Hg10 mi
5:20 PM39 °FScattered clouds.9 mph70%29.65 "HgN/A
4:50 PM41 °FScattered clouds.10 mph66%29.65 "HgN/A
4:20 PM41 °FPassing clouds.12 mph66%29.65 "HgN/A
3:50 PM41 °FSunny.10 mph66%29.65 "Hg10 mi
3:20 PM41 °FPassing clouds.14 mph61%29.65 "HgN/A
2:50 PM41 °FScattered clouds.12 mph61%29.65 "HgN/A
2:20 PM41 °FScattered clouds.13 mph66%29.65 "HgN/A
1:50 PM43 °FScattered clouds.15 mph66%29.65 "HgN/A
1:20 PM41 °FSunny.15 mph70%29.65 "Hg10 mi
12:50 PM41 °FPartly sunny.13 mph70%29.65 "HgN/A
12:20 PM41 °FScattered clouds.15 mph70%29.65 "HgN/A
11:50 AM41 °FPartly sunny.13 mph70%29.65 "HgN/A
11:20 AM39 °FPartly sunny.13 mph75%29.65 "HgN/A
Weather by CustomWeather, © 2016

See weather overviewHow to use our weather pages